HEBOWX Weather Reports


Display with metric or nautical units.
time (UTC)temp
F
wind
direction
speed
MPH
gust
MPH
rain 1hr
in
rain 24hr
in
rain mn
in
humidity
%
barometer
mb
20260503002022 63 0 0.0 2.0 0.00 0.00 0.00 49 1010.2
20260503001521 63 85 0.0 2.0 0.00 0.00 0.00 49 1010.2
20260503001022 63 117 0.0 3.0 0.00 0.00 0.00 48 1010.2
20260503000522 63 86 0.0 3.0 0.00 0.00 0.00 48 1010.3
20260503000021 63 105 0.0 3.0 0.00 0.00 0.00 48 1010.3
20260502235521 62 89 0.0 3.0 0.00 0.00 0.00 49 1010.2
20260502235021 62 0 0.0 3.0 0.00 0.00 0.00 50 1010.3
20260502234522 62 58 0.0 3.0 0.00 0.00 0.00 49 1010.3
20260502234021 62 96 0.0 3.0 0.00 0.00 0.00 47 1010.3
20260502233521 62 117 1.0 3.0 0.00 0.00 0.00 49 1010.4
20260502233021 62 88 1.0 2.0 0.00 0.00 0.00 48 1010.5
20260502232521 62 147 0.0 3.0 0.00 0.00 0.00 49 1010.7
20260502232021 62 40 1.0 3.0 0.00 0.00 0.00 48 1010.6
20260502231521 62 110 0.0 3.0 0.00 0.00 0.00 48 1010.5
20260502231021 62 0 1.0 3.0 0.00 0.00 0.00 48 1010.6
20260502230521 62 0 0.0 3.0 0.00 0.00 0.00 47 1010.8
20260502230021 62 106 0.0 3.0 0.00 0.00 0.00 48 1010.7
20260502225521 62 53 0.0 1.0 0.00 0.00 0.00 47 1010.8
20260502225021 62 0 0.0 0.0 0.00 0.00 0.00 48 1010.8
20260502224521 62 49 0.0 5.0 0.00 0.00 0.00 47 1010.8
20260502224021 62 54 0.0 5.0 0.00 0.00 0.00 47 1010.9
20260502223521 62 310 0.0 5.0 0.00 0.00 0.00 46 1010.9
20260502223021 63 68 0.0 2.0 0.00 0.00 0.00 46 1011.1
20260502222521 63 29 0.0 2.0 0.00 0.00 0.00 46 1010.9
20260502222021 63 93 0.0 5.0 0.00 0.00 0.00 45 1011.2
20260502221521 63 110 0.0 5.0 0.00 0.00 0.00 45 1011.2
20260502221021 63 357 0.0 5.0 0.00 0.00 0.00 46 1011.1
20260502220521 63 85 0.0 3.0 0.00 0.00 0.00 45 1011.3
20260502220022 63 138 0.0 2.0 0.00 0.00 0.00 45 1011.4
20260502215521 63 105 0.0 2.0 0.00 0.00 0.00 45 1011.4
20260502215021 62 105 0.0 2.0 0.00 0.00 0.00 45 1011.3
20260502214521 62 56 1.0 4.0 0.00 0.00 0.00 45 1011.5
20260502214021 62 100 0.0 4.0 0.00 0.00 0.00 45 1011.2
20260502213521 63 140 0.0 4.0 0.00 0.00 0.00 44 1011.2
20260502213021 62 277 2.0 2.0 0.00 0.00 0.00 44 1011.2
20260502212521 62 357 0.0 1.0 0.00 0.00 0.00 44 1011.2
20260502212021 62 0 0.0 0.0 0.00 0.00 0.00 45 1011.3
20260502211521 61 102 0.0 4.0 0.00 0.00 0.00 46 1011.3
20260502211021 60 79 1.0 4.0 0.00 0.00 0.00 47 1011.3
20260502210521 60 106 0.0 4.0 0.00 0.00 0.00 48 1011.4
20260502210021 59 82 0.0 2.0 0.00 0.00 0.00 49 1011.4
20260502205521 58 112 0.0 8.0 0.00 0.00 0.00 49 1011.4
20260502205021 57 119 0.0 8.0 0.00 0.00 0.00 51 1011.3
20260502204522 56 71 0.0 8.0 0.00 0.00 0.00 53 1011.3
20260502204021 56 50 2.0 8.0 0.00 0.00 0.00 54 1011.4
20260502203521 56 50 3.0 5.0 0.00 0.00 0.00 55 1011.3
20260502203021 56 49 0.0 2.0 0.00 0.00 0.00 55 1011.5
20260502202521 56 77 0.0 7.0 0.00 0.00 0.00 55 1011.5
20260502202021 56 57 0.0 7.0 0.00 0.00 0.00 54 1011.5
20260502201521 56 63 1.0 7.0 0.00 0.00 0.00 55 1011.6
20260502201022 56 114 4.0 6.0 0.00 0.00 0.00 55 1011.6
20260502200521 55 74 0.0 5.0 0.00 0.00 0.00 55 1011.5
20260502200021 56 280 1.0 4.0 0.00 0.00 0.00 55 1011.6
20260502195521 56 77 0.0 4.0 0.00 0.00 0.00 54 1011.6
20260502195021 56 123 0.0 4.0 0.00 0.00 0.00 53 1011.8
20260502194521 57 98 0.0 6.0 0.00 0.00 0.00 54 1011.6
20260502194021 57 49 0.0 6.0 0.00 0.00 0.00 54 1011.6
20260502193521 57 72 0.0 6.0 0.00 0.00 0.00 53 1011.8
20260502193021 57 0 1.0 1.0 0.00 0.00 0.00 53 1011.8
20260502192521 57 0 0.0 1.0 0.00 0.00 0.00 54 1011.9
20260502192022 57 65 0.0 1.0 0.00 0.00 0.00 53 1011.9
20260502191522 56 65 0.0 1.0 0.00 0.00 0.00 55 1012.1
20260502191021 56 26 0.0 10.0 0.00 0.00 0.00 54 1012.1
20260502190521 56 33 0.0 10.0 0.00 0.00 0.00 55 1011.8
20260502190021 55 57 0.0 10.0 0.00 0.00 0.00 55 1011.8
20260502185521 54 71 0.0 3.0 0.00 0.00 0.00 56 1011.6
20260502185021 54 98 0.0 3.0 0.00 0.00 0.00 57 1011.9
20260502184521 53 109 0.0 3.0 0.00 0.00 0.00 59 1011.7
20260502184021 52 0 1.0 1.0 0.00 0.00 0.00 60 1011.6
20260502183522 52 0 0.0 0.0 0.00 0.00 0.00 60 1011.7
20260502183021 52 53 0.0 10.0 0.00 0.00 0.00 59 1011.7
20260502182521 52 68 0.0 10.0 0.00 0.00 0.00 60 1011.7
20260502182021 52 58 3.0 10.0 0.00 0.00 0.00 60 1011.4
20260502181521 53 57 2.0 8.0 0.00 0.00 0.00 57 1011.6
20260502181021 54 25 1.0 10.0 0.00 0.00 0.00 58 1011.4
20260502180522 54 51 3.0 10.0 0.00 0.00 0.00 59 1011.4
20260502170521 54 9 2.0 3.0 0.00 0.00 0.00 55 1011.9
20260502164021 54 0 0.0 0.0 0.00 0.00 0.00 55 1012.1
20260502163521 54 0 0.0 0.0 0.00 0.00 0.00 55 1012.1
20260502163021 53 0 0.0 0.0 0.00 0.00 0.00 55 1011.9
20260502162521 53 0 0.0 0.0 0.00 0.00 0.00 55 1012.1
20260502162021 53 0 0.0 5.0 0.00 0.00 0.00 55 1012.1
20260502161521 53 0 0.0 5.0 0.00 0.00 0.00 54 1012.1
20260502161021 52 63 0.0 5.0 0.00 0.00 0.00 54 1012.1
20260502160521 52 67 0.0 4.0 0.00 0.00 0.00 54 1012.2
20260502152020 49 0 0.0 0.0 0.00 0.00 0.00 49 1011.9
20260502151520 49 0 0.0 0.0 0.00 0.00 0.00 49 1011.9
20260502151021 49 0 0.0 0.0 0.00 0.00 0.00 49 1012.2
20260502150520 49 0 0.0 0.0 0.00 0.00 0.00 50 1011.9
20260502130520 45 0 0.0 0.0 0.00 0.00 0.00 45 1011.9
20260502123520 44 0 0.0 0.0 0.00 0.00 0.00 47 1011.9
20260502123020 44 0 0.0 0.0 0.00 0.00 0.00 48 1011.9
20260502122520 44 0 0.0 0.0 0.00 0.00 0.00 49 1011.9
20260502122020 44 0 0.0 1.0 0.00 0.00 0.00 50 1012.2
20260502121520 44 0 0.0 1.0 0.00 0.00 0.00 50 1012.1
20260502121020 44 341 0.0 1.0 0.00 0.00 0.00 51 1012.2
20260502120520 44 333 0.0 2.0 0.00 0.00 0.00 51 1012.1
20260502115520 44 344 0.0 2.0 0.00 0.00 0.00 50 1011.9
20260502115020 44 326 1.0 2.0 0.00 0.00 0.00 51 1011.9
20260502114520 44 352 1.0 2.0 0.00 0.00 0.00 49 1011.8
20260502114020 44 333 0.0 2.0 0.00 0.00 0.00 49 1012.3
20260502113520 44 330 0.0 2.0 0.00 0.00 0.00 49 1011.9
20260502113020 44 334 0.0 2.0 0.00 0.00 0.00 49 1011.8
20260502112520 44 341 1.0 2.0 0.00 0.00 0.00 49 1011.8
20260502112020 44 322 0.0 2.0 0.00 0.00 0.00 50 1011.8
20260502111520 44 348 0.0 2.0 0.00 0.00 0.00 49 1011.8
20260502111020 44 331 0.0 2.0 0.00 0.00 0.00 48 1011.9
20260502110520 44 336 0.0 1.0 0.00 0.00 0.00 48 1012.1
20260502110022 44 334 0.0 1.0 0.00 0.00 0.00 48 1012.1
20260502105520 44 336 0.0 1.0 0.00 0.00 0.00 49 1012.1
20260502105020 44 323 0.0 2.0 0.00 0.00 0.00 49 1011.9
20260502104520 44 329 1.0 2.0 0.00 0.00 0.00 49 1011.8
20260502104020 44 296 0.0 2.0 0.00 0.00 0.00 49 1012.1
20260502103520 45 322 0.0 1.0 0.00 0.00 0.00 48 1012.1
20260502103020 45 334 0.0 1.0 0.00 0.00 0.00 48 1012.2
20260502102520 45 0 0.0 0.0 0.00 0.00 0.00 47 1012.3
20260502102020 45 0 0.0 0.0 0.00 0.00 0.00 46 1012.4
20260502101520 45 0 0.0 0.0 0.00 0.00 0.00 46 1012.5
20260502101020 45 0 0.0 0.0 0.00 0.00 0.00 46 1012.5
20260502100520 45 0 0.0 1.0 0.00 0.00 0.00 46 1012.6
20260502091520 45 0 0.0 0.0 0.00 0.00 0.00 47 1013.1
20260502091020 45 0 0.0 0.0 0.00 0.00 0.00 47 1013.3
20260502090520 45 0 0.0 0.0 0.00 0.00 0.00 46 1013.2
20260502071520 43 350 1.0 8.0 0.00 0.00 0.00 61 1013.3
20260502071019 43 313 2.0 8.0 0.00 0.00 0.00 60 1013.4
20260502070520 43 2 2.0 6.0 0.00 0.00 0.00 63 1013.4
20260502070020 42 326 1.0 4.0 0.00 0.00 0.00 65 1013.4
20260502065520 42 0 0.0 4.0 0.00 0.00 0.00 66 1013.4
20260502065019 42 315 1.0 4.0 0.00 0.00 0.00 66 1013.4
20260502064519 42 302 1.0 3.0 0.00 0.00 0.00 69 1013.4
20260502064019 42 9 1.0 2.0 0.00 0.00 0.00 70 1013.4
20260502063519 42 16 1.0 2.0 0.00 0.00 0.00 72 1013.4
20260502063019 41 0 1.0 2.0 0.00 0.00 0.00 74 1013.4
20260502062519 41 8 1.0 4.0 0.00 0.00 0.00 76 1013.5
20260502062019 41 5 1.0 4.0 0.00 0.00 0.00 77 1013.4
20260502061519 41 331 2.0 4.0 0.00 0.00 0.00 78 1013.4
20260502061019 41 9 2.0 3.0 0.00 0.00 0.00 78 1013.5
20260502060519 40 350 2.0 3.0 0.00 0.00 0.00 79 1013.3
20260502060019 41 357 2.0 3.0 0.00 0.00 0.00 79 1013.4
20260502055519 40 1 1.0 6.0 0.00 0.00 0.00 80 1013.3
20260502055019 41 345 2.0 6.0 0.00 0.00 0.00 79 1013.3
20260502054519 40 337 1.0 6.0 0.00 0.00 0.00 80 1013.3
20260502054019 40 329 1.0 4.0 0.00 0.00 0.00 80 1013.4
20260502053519 40 2 2.0 2.0 0.00 0.00 0.00 80 1013.3
20260502053019 40 354 1.0 2.0 0.00 0.00 0.00 80 1013.3
20260502052519 40 341 1.0 6.0 0.00 0.00 0.00 80 1013.4
20260502052020 40 323 2.0 6.0 0.00 0.00 0.00 80 1013.2
20260502051519 40 344 3.0 6.0 0.00 0.00 0.00 80 1013.3
20260502051019 40 330 3.0 7.0 0.00 0.00 0.00 80 1013.3
20260502050519 40 336 3.0 7.0 0.00 0.00 0.00 81 1013.4
20260502050019 40 343 5.0 7.0 0.00 0.00 0.00 80 1013.4
20260502045519 40 313 3.0 6.0 0.00 0.00 0.00 80 1013.3
20260502045019 41 355 2.0 6.0 0.00 0.00 0.00 80 1013.1
20260502044519 41 323 2.0 6.0 0.00 0.00 0.00 80 1013.2
20260502044019 41 333 1.0 6.0 0.00 0.00 0.00 79 1013.2
20260502043519 41 357 3.0 5.0 0.00 0.00 0.00 80 1013.2
20260502043019 41 355 2.0 5.0 0.00 0.00 0.00 80 1013.1
20260502042519 41 334 3.0 5.0 0.00 0.00 0.00 80 1013.3
20260502042019 41 357 2.0 6.0 0.00 0.00 0.00 80 1013.2
20260502041519 41 337 3.0 6.0 0.00 0.00 0.00 80 1013.1
20260502041019 41 350 3.0 6.0 0.00 0.00 0.00 79 1013.1
20260502040519 42 357 1.0 4.0 0.00 0.00 0.00 79 1013.1
20260502040019 42 352 2.0 6.0 0.00 0.00 0.00 79 1013.0
20260502035519 42 343 2.0 6.0 0.00 0.00 0.00 80 1013.0
20260502035019 42 337 2.0 6.0 0.00 0.00 0.00 80 1013.2
20260502034520 42 337 2.0 6.0 0.00 0.00 0.00 80 1012.8
20260502034020 42 350 3.0 6.0 0.00 0.00 0.00 79 1012.8
20260502033519 42 331 3.0 6.0 0.00 0.00 0.00 79 1012.8
20260502033019 43 343 3.0 5.0 0.00 0.00 0.00 79 1012.8
20260502032519 43 12 2.0 5.0 0.00 0.00 0.00 79 1012.8
20260502032020 43 337 2.0 5.0 0.00 0.00 0.00 79 1013.1
20260502031519 43 347 1.0 5.0 0.00 0.00 0.00 80 1012.7
20260502031019 43 343 2.0 4.0 0.00 0.00 0.00 80 1012.8
20260502030519 43 319 0.0 5.0 0.00 0.00 0.00 80 1012.8
20260502030021 43 338 1.0 5.0 0.00 0.00 0.00 79 1012.7
20260502025519 44 333 1.0 5.0 0.00 0.00 0.00 80 1012.6
20260502025019 43 333 2.0 5.0 0.00 0.00 0.00 79 1012.8
20260502024519 44 340 2.0 5.0 0.00 0.00 0.00 79 1012.6
20260502024019 44 333 2.0 5.0 0.00 0.00 0.00 79 1012.6
20260502023519 44 351 1.0 7.0 0.00 0.00 0.00 78 1012.6
20260502023019 44 357 1.0 7.0 0.00 0.00 0.00 78 1012.5
20260502022519 44 334 2.0 7.0 0.00 0.00 0.00 78 1013.3
20260502022020 44 1 1.0 7.0 0.00 0.00 0.00 76 1012.7
20260502021520 45 324 1.0 5.0 0.00 0.00 0.00 76 1012.6
20260502021019 45 334 2.0 5.0 0.00 0.00 0.00 76 1012.5
20260502020519 45 357 2.0 5.0 0.00 0.00 0.00 75 1012.5
20260502020020 45 330 1.0 5.0 0.00 0.00 0.00 75 1012.5
20260502015519 45 326 2.0 4.0 0.00 0.00 0.00 75 1012.5
20260502015019 45 338 2.0 4.0 0.00 0.00 0.00 75 1012.8
20260502014519 46 341 1.0 5.0 0.00 0.00 0.00 72 1012.7
20260502014019 46 330 1.0 5.0 0.00 0.00 0.00 72 1012.7
20260502013519 46 343 3.0 5.0 0.00 0.00 0.00 70 1013.0
20260502013019 46 324 2.0 5.0 0.00 0.00 0.00 72 1012.6
20260502012519 46 303 1.0 5.0 0.00 0.00 0.00 72 1012.6
20260502012019 46 329 2.0 6.0 0.00 0.00 0.00 71 1012.7
20260502011519 47 343 1.0 6.0 0.00 0.00 0.00 70 1012.6
20260502011019 47 333 3.0 6.0 0.00 0.00 0.00 71 1012.7
20260502010519 47 344 3.0 8.0 0.00 0.00 0.00 69 1012.7
20260502010020 47 330 2.0 8.0 0.00 0.00 0.00 70 1013.0
20260502005519 47 313 2.0 8.0 0.00 0.00 0.00 68 1012.7
20260502005019 47 37 3.0 6.0 0.00 0.00 0.00 68 1013.0
20260502004519 48 341 2.0 5.0 0.00 0.00 0.00 69 1012.8
20260502004019 48 288 2.0 5.0 0.00 0.00 0.00 69 1013.0
20260502003519 48 327 3.0 5.0 0.00 0.00 0.00 67 1013.0
20260502003019 49 336 2.0 5.0 0.00 0.00 0.00 67 1013.0
20260502002519 49 330 2.0 5.0 0.00 0.00 0.00 65 1013.2